Home > Weather > Bamyan > Past weeks

Flag for Afghanistan Weather for the Past 2 Weeks in Bamyan, Afghanistan

Now
82 °F

Passing clouds.


Feels Like: 82 °F
Forecast: 46 / 58 °F
Wind: 13 mph from West

Location: Termez Airport

Current Time: May 2, 2016 at 1:21:08 PM

Latest Report: May 2, 2016 at 12:00 PM


Visibility: N/A

Pressure: 29.83 "Hg (22.48 "Hg at 2492m altitude)

Humidity: 40%

Dew Point: 55 °F

Location of BamyanLocation

Historic Weather in Bamyan — Graph

°F

Bamyan Temperature Yesterday

Maximum temperature yesterday: 95 °F (at 1:30 PM)
Minimum temperature yesterday: 63 °F (at 5:30 AM)
Average temperature yesterday: 83 °F

High & Low Weather Summary for the Past Weeks

 TemperatureHumidityPressure
High100 °F (Apr 30, 3:00 PM)100% (Apr 22, 5:30 AM)30.21 "Hg (Apr 22, 5:30 AM)
Low52 °F (Apr 22, 5:00 AM)9% (Apr 29, 3:00 PM)29.71 "Hg (Apr 30, 5:30 PM)
Average73 °F44%29.95 "Hg
* Reported Apr 17 11:30 AM — May 2 11:30 AM, Bamyan, Weather by CustomWeather, © 2016

Note: Actual official high and low records may vary slightly from our data, if they occured in-between our weather recording intervals... More about our weather records

Advertising

Bamyan Weather History for the Previous 24 Hours

Scroll right to see more
 ConditionsComfort  
Time TempWeatherWind HumidityBarometerVisibility
11:30 AM
Mon, May 2
82 °FPassing clouds.13 mph40%29.86 "HgN/A
11:00 AM82 °FPassing clouds.12 mph37%29.86 "HgN/A
10:30 AM81 °FPassing clouds.9 mph45%29.86 "HgN/A
9:30 AM79 °FPassing clouds.14 mph45%29.86 "HgN/A
9:00 AM77 °FPassing clouds.15 mph47%29.86 "HgN/A
8:30 AM77 °FPassing clouds.15 mph47%29.86 "HgN/A
7:00 AM73 °FScattered clouds.14 mph53%29.83 "HgN/A
6:30 AM72 °FScattered clouds.14 mph57%29.83 "HgN/A
6:00 AM72 °FScattered clouds.13 mph57%29.80 "HgN/A
5:30 AM72 °FScattered clouds.13 mph57%29.80 "HgN/A
4:30 AM72 °FPassing clouds.13 mph53%29.77 "HgN/A
3:30 AM73 °FClear.13 mph53%29.77 "Hg10 mi
2:30 AM73 °FClear.14 mph50%29.77 "Hg10 mi
1:30 AM75 °FClear.16 mph47%29.77 "Hg10 mi
12:30 AM77 °FClear.12 mph44%29.77 "Hg10 mi
11:30 PM
Sun, May 1
77 °FClear.10 mph44%29.77 "Hg10 mi
11:00 PM77 °FDuststorm.12 mph44%29.80 "Hg4 mi
10:30 PM79 °FDuststorm.16 mph39%29.80 "Hg4 mi
10:00 PM81 °FDuststorm.15 mph37%29.77 "Hg4 mi
9:30 PM81 °FDuststorm.18 mph37%29.77 "Hg3 mi
8:30 PM82 °FHaze.15 mph37%29.77 "Hg3 mi
8:00 PM81 °FClear.9 mph34%29.74 "Hg10 mi
7:30 PM81 °FClear.8 mph34%29.74 "Hg10 mi
7:00 PM82 °FClear.9 mph32%29.74 "Hg10 mi
6:30 PM86 °FSunny.10 mph31%29.71 "Hg10 mi
6:00 PM88 °FSunny.10 mph29%29.71 "Hg10 mi
5:30 PM90 °FSunny.12 mph26%29.71 "Hg10 mi
5:00 PM91 °FSunny.14 mph24%29.71 "Hg10 mi
4:30 PM93 °FSunny.14 mph23%29.71 "Hg10 mi
4:00 PM93 °FDuststorm.13 mph21%29.71 "Hg4 mi
3:30 PM93 °FDuststorm.13 mph20%29.71 "Hg4 mi
3:00 PM93 °FDuststorm.15 mph20%29.74 "Hg4 mi
2:30 PM95 °FDuststorm.15 mph19%29.74 "Hg4 mi
2:00 PM93 °FClear.17 mph21%29.74 "Hg4 mi
1:30 PM95 °FClear.14 mph18%29.74 "Hg5 mi
1:00 PM93 °FClear.14 mph16%29.77 "Hg4 mi
Weather by CustomWeather, © 2016

See weather overviewHow to use our weather pages